Preview of NWS' New Version of Forecast
This preview is not operational and should not be used for support decisions.

Regional Weather Roundup (RWR)

Issued by National Weather Service (NWS)

                            
000
ASUS44 KMEG 181800
RWRTN 
TENNESSEE HOURLY STATE WEATHER ROUNDUP
NATIONAL WEATHER SERVICE MEMPHIS TN
100 PM CDT MON MAR 18 2019

TNZ002-004-019-021-049-052-054-088>092-181900-
WEST TENNESSEE
  
CITY           SKY/WX    TMP DP  RH WIND       PRES   REMARKS
MEMPHIS INTL   FAIR      53  29  39 E10       30.40F                  
NWS MEMPHIS      N/A     54 N/A N/A MISG        N/A                   
JACKSON        FAIR      54  29  38 NE13      30.41F                  
DYERSBURG      FAIR      55  31  39 NE9       30.43F                  
$$

TNZ008-025-027-028-033-062-065-066-181900-
NORTH MIDDLE TENNESSEE
  
CITY           SKY/WX    TMP DP  RH WIND       PRES   REMARKS
NASHVILLE      FAIR      52  19  27 N8        30.40F                  
CLARKSVILLE    FAIR      50  17  27 VRB6G16   30.42S                  
SMYRNA         FAIR      51  20  29 N9        30.41F                  
CROSSVILLE     FAIR      45  15  30 VRB3G21   30.33F                  
$$

TNZ061-075-076-078-094-096-097-181900-
SOUTH MIDDLE TENNESSEE
  
CITY           SKY/WX    TMP DP  RH WIND       PRES   REMARKS
FAYETTEVILLE   SUNNY     50  18  27 N14       30.36F                  
$$

TNZ017-018-042-046-047-181900-
NORTHEAST TENNESSEE
  
CITY           SKY/WX    TMP DP  RH WIND       PRES   REMARKS
TRI CITIES     FAIR      46  17  31 N8        30.29S                  
$$

TNZ012-013-036-069-073-074-181900-
CENTRAL EAST TENNESSEE
  
CITY           SKY/WX    TMP DP  RH WIND       PRES   REMARKS
KNOXVILLE      FAIR      49  12  22 VRB6G17   30.33F                  
OAK RIDGE      FAIR      52  13  21 NW9       30.34F                  
$$

TNZ083-085-099-181900-
SOUTHEAST TENNESSEE
  
CITY           SKY/WX    TMP DP  RH WIND       PRES   REMARKS
CHATTANOOGA    FAIR      54  20  26 NE7       30.33F                  
$$

SKY/WX REPORTED AS FAIR MEANS FEW OR NO CLOUDS BELOW
12 THOUSAND FEET.